Theta_e
320 321 321 321 321 321 321 321 321 321 321 322 322 323 323 323 321 318 311 319 321 339 336 317 319 319 320 315 313 312 302 304 310 313 315 319 311 316 322 321 323 329 331 330 331
320 320 321 321 320 320 320 320 321 321 321 321 322 323 323 323 315 312 326 336 341 342 314 313 313 316 312 309 309 306 302 306 316 318 316 314 314 314 317 321 322 327 331 331 331
319 320 320 320 320 319 319 320 320 320 321 321 321 321 322 320 315 319 341 340 341 337 312 314 315 314 307 307 307 307 305 312 309 313 310 311 312 318 317 319 323 324 327 329 328
318 318 319 319 319 319 319 319 320 320 320 320 321 321 321 317 306 316 341 341 340 317 309 309 311 306 302 303 308 302 311 313 310 313 309 308 313 313 316 321 328 329 329 328 327
318 318 318 318 318 318 318 318 319 319 319 320 322 320 315 312 312 329 341 338 323 312 308 310 308 305 302 304 306 304 310 312 313 311 311 315 313 313 310 328 330 329 329 327 324
317 317 317 317 318 317 317 317 317 318 319 322 322 321 313 305 317 327 320 317 311 309 312 312 311 309 305 304 301 307 308 310 310 307 309 311 310 311 314 328 326 326 324 323 324
316 316 317 317 317 317 317 317 316 317 320 325 322 320 317 314 317 317 314 311 312 314 313 315 313 306 307 304 307 307 303 307 308 309 308 310 307 309 314 327 324 323 323 323 322
315 315 316 316 317 317 317 316 316 318 321 323 323 318 313 323 317 315 314 313 316 316 314 312 311 306 304 307 307 303 300 296 306 309 312 309 302 312 316 322 323 323 323 322 321
315 315 315 316 316 316 316 315 318 320 325 323 318 315 313 322 319 318 316 313 314 313 311 317 309 304 306 300 297 298 294 297 302 309 307 308 304 313 316 317 320 323 324 323 322
315 314 314 315 315 315 314 315 320 321 324 324 323 312 317 311 319 321 318 317 312 309 307 305 302 298 298 295 290 294 294 296 298 303 305 305 305 307 314 317 318 317 322 324 323
315 314 314 314 314 314 311 313 312 313 312 314 314 315 318 323 323 318 318 314 312 306 298 302 295 293 297 300 301 301 298 298 301 305 302 300 302 303 306 309 310 317 318 322 324
314 314 314 314 314 313 310 311 312 311 304 314 314 317 318 319 315 315 317 308 305 298 301 298 294 301 305 304 303 301 297 297 301 304 299 300 299 301 305 306 306 306 312 311 323
312 312 314 313 312 314 316 318 320 315 303 311 315 314 311 316 314 313 313 309 303 300 298 297 302 307 305 302 303 298 297 298 298 302 302 300 298 301 305 306 307 308 309 311 316
312 312 313 313 313 314 314 319 319 317 298 307 311 311 312 311 308 318 316 311 306 300 300 299 305 306 303 302 301 295 303 303 302 298 292 300 290 299 303 303 305 305 308 316 321
311 312 312 311 307 311 317 319 319 314 292 309 310 315 312 306 310 311 318 311 305 307 305 302 304 303 301 303 304 299 304 304 303 297 295 297 292 297 302 301 303 308 314 318 323
311 311 311 313 308 314 320 322 317 300 292 307 309 306 305 307 308 313 312 313 312 307 308 306 310 307 304 307 306 306 302 302 300 295 289 295 294 295 299 306 310 314 316 321 325
310 310 309 312 309 317 319 315 300 294 308 306 305 307 304 304 306 308 308 304 300 296 298 304 305 307 309 302 303 301 297 289 289 288 289 299 297 296 308 312 315 315 319 321 325
308 308 311 313 316 317 316 306 295 305 305 310 309 307 302 305 305 307 305 301 306 304 299 298 298 305 308 303 299 299 298 290 286 288 294 301 298 303 317 319 319 319 319 320 320
307 312 314 320 319 318 310 299 300 305 308 306 307 303 302 305 305 304 303 303 306 306 299 300 303 309 310 309 305 300 296 301 295 295 292 296 306 313 317 317 318 318 319 318 316
305 310 316 324 324 318 306 300 305 311 311 309 301 305 299 303 302 301 302 307 308 311 309 306 298 308 309 309 307 301 305 295 295 289 288 294 298 301 310 313 315 314 315 315 315
307 309 321 324 323 312 301 304 309 314 311 308 305 304 306 305 305 301 303 309 312 311 309 304 301 303 307 302 301 301 297 299 298 296 290 289 298 312 311 313 312 313 314 313 313
308 303 320 321 307 309 304 309 309 312 314 312 309 307 306 308 307 307 305 309 312 312 308 309 303 298 302 308 309 304 301 301 294 293 295 294 296 315 314 315 315 314 316 315 316
301 306 315 317 300 303 309 312 314 313 311 310 310 310 309 307 303 308 308 312 312 313 308 310 300 293 296 300 306 304 306 305 303 300 295 293 296 314 315 313 314 312 312 312 310
303 303 311 311 309 304 303 306 310 312 311 311 310 311 309 306 307 305 306 312 312 309 316 314 303 299 294 298 301 300 304 305 301 296 297 297 299 311 311 310 312 311 311 308 307
306 307 311 303 306 306 308 308 306 307 310 310 307 308 307 302 305 305 308 307 310 312 310 308 298 301 302 305 304 304 303 303 299 300 296 298 298 301 301 302 303 304 305 306 306
303 305 308 304 308 306 304 305 305 307 309 308 305 308 309 304 305 303 307 306 306 306 303 308 300 302 300 305 303 300 302 301 300 300 298 297 298 302 303 303 303 303 305 304 305
309 310 306 304 303 302 303 305 305 307 310 310 309 308 306 306 309 308 307 307 306 305 304 304 300 297 293 302 300 294 299 300 301 301 300 295 298 302 300 302 300 302 304 305 306
Wind_Speed
21 21 20 20 20 20 20 20 19 19 18 17 15 13 12 12 13 4 6 10 8 11 3 3 5 7 9 8 9 7 3 10 7 16 19 8 7 6 9 11 8 5 11 18 14
22 22 21 21 21 21 20 21 20 19 18 17 15 12 10 8 4 9 13 10 7 13 4 6 7 9 4 6 6 6 4 10 13 16 7 4 10 9 10 15 16 18 20 17 12
22 22 22 22 23 22 21 21 21 20 19 16 13 10 8 5 4 8 16 11 12 12 7 8 9 7 7 7 10 9 11 13 2 8 4 2 5 2 10 11 18 23 17 16 9
23 24 23 23 23 23 22 22 21 21 20 17 11 6 4 4 3 3 7 9 8 7 4 6 8 6 6 8 10 5 12 10 4 6 2 2 4 5 0 15 20 20 20 16 12
23 24 23 23 24 23 23 22 22 20 19 15 7 3 2 3 10 6 8 8 7 4 7 8 7 6 7 8 8 6 10 9 7 8 7 6 2 5 2 20 21 20 18 13 9
23 23 24 24 24 24 23 22 22 19 16 13 1 5 3 4 5 12 10 8 8 6 8 9 9 10 8 9 5 10 10 7 7 5 5 7 7 6 6 23 21 20 16 13 12
23 23 25 25 25 25 24 23 22 19 14 8 5 6 5 12 10 11 11 8 8 9 9 11 13 3 8 9 9 10 7 9 10 8 8 6 2 4 6 22 21 19 18 15 16
24 24 25 26 26 26 25 25 24 18 10 1 5 6 8 5 10 10 10 9 10 12 11 9 7 3 3 9 11 9 5 5 11 10 15 5 7 8 4 21 20 21 20 20 19
24 25 27 27 27 27 26 30 23 13 5 4 3 4 8 1 11 13 11 11 10 5 4 7 6 2 8 5 7 7 6 9 12 16 9 7 6 10 5 16 18 18 19 19 18
25 26 27 27 28 27 28 26 7 6 4 7 9 5 6 8 8 9 10 10 5 5 3 1 1 2 4 1 6 11 5 8 9 10 10 9 7 2 3 8 6 12 16 20 21
26 27 28 29 29 23 17 7 4 2 2 8 4 6 3 16 8 7 9 5 6 4 5 7 3 7 14 13 15 9 8 8 8 8 8 6 4 2 3 2 5 10 12 17 23
26 27 28 30 31 28 4 2 4 7 10 13 20 19 19 10 7 9 7 5 5 7 8 3 9 14 12 11 12 8 4 8 10 8 4 7 7 5 8 7 6 2 8 8 14
26 27 28 32 35 9 5 10 6 4 4 10 14 14 7 6 8 11 11 9 8 8 8 9 12 15 14 4 4 3 4 7 8 8 8 6 10 8 10 6 6 7 3 7 8
26 27 26 32 6 8 6 6 7 5 3 7 9 8 9 6 9 9 13 9 5 12 11 10 14 9 5 4 3 3 9 11 9 3 4 5 6 10 9 11 6 7 8 15 22
25 25 25 15 8 5 7 8 7 5 4 9 8 6 11 10 3 12 15 7 12 11 2 11 10 6 4 4 5 9 5 5 6 4 5 9 4 12 7 7 7 10 15 17 23
27 25 24 2 4 12 14 14 5 1 7 9 8 7 10 10 12 10 9 6 7 8 10 9 6 2 1 3 7 6 5 5 5 2 4 9 6 10 8 15 12 12 14 16 18
30 33 12 6 7 8 11 4 2 4 9 11 7 12 10 9 13 9 9 7 6 3 7 10 10 5 5 4 3 4 5 4 5 2 6 7 1 9 10 15 19 16 15 13 15
33 34 6 9 8 9 3 3 4 9 10 10 12 14 13 11 12 11 9 7 10 8 5 6 11 12 7 6 7 8 10 7 3 1 2 7 5 4 20 19 19 18 16 16 14
31 4 5 6 12 5 1 3 6 3 9 11 1 5 8 13 8 9 10 10 12 12 9 4 10 9 10 5 5 5 4 12 2 3 5 2 11 13 17 14 15 16 16 13 11
7 5 6 8 11 2 0 5 6 10 10 9 5 1 5 8 7 8 10 11 5 6 6 1 4 2 6 7 7 1 3 6 5 2 3 4 4 7 13 14 13 11 12 11 10
3 4 2 9 6 1 4 6 10 17 7 5 8 7 8 10 7 8 5 8 7 6 5 5 5 9 5 2 3 7 2 1 4 5 3 2 4 2 10 13 14 12 10 9 9
5 4 2 3 1 4 5 7 6 11 4 1 6 5 6 9 7 5 6 6 6 6 5 1 4 2 6 10 6 5 1 6 6 6 1 4 5 7 13 11 11 10 8 7 8
6 5 7 4 3 5 9 15 18 2 4 6 3 5 6 5 6 8 6 6 7 7 3 3 1 3 10 9 9 4 6 2 5 4 1 4 5 6 13 10 9 10 10 10 11
5 5 3 1 4 6 10 13 9 6 2 5 6 8 8 5 7 4 3 2 8 6 4 5 3 4 6 4 3 7 9 5 5 4 4 6 3 9 9 10 11 10 9 9 8
4 4 4 5 6 10 9 9 11 4 3 3 2 7 6 4 7 9 4 7 7 4 4 5 1 4 6 9 8 8 9 9 6 5 5 4 5 6 7 9 7 8 11 13 11
4 5 8 8 8 8 6 7 11 13 2 2 4 9 9 7 6 7 8 7 4 3 4 2 1 7 5 9 10 11 11 9 10 10 7 5 11 8 8 9 10 10 13 10 9
5 5 4 5 7 6 4 7 11 10 3 6 7 6 11 10 7 4 3 2 4 3 2 5 3 3 4 6 10 8 5 7 6 10 2 5 6 8 9 9 8 9 8 7 6
Wind_Direction
346 343 338 335 334 331 327 322 320 321 317 316 315 313 313 311 304 213 243 227 187 183 199 227 201 241 258 250 249 254 245 258 156 192 243 267 108 126 135 98 66 69 129 139 146
344 341 336 334 332 328 326 320 320 321 319 315 311 310 310 323 270 242 243 177 181 148 190 222 206 218 238 252 245 173 196 244 202 190 239 241 149 164 120 114 98 92 105 130 141
343 340 335 333 329 326 326 320 323 323 318 313 309 308 302 297 295 235 175 170 156 167 208 220 246 206 220 238 247 251 238 256 332 146 28 12 97 24 121 129 143 137 140 145 151
341 338 334 330 327 327 325 321 322 320 316 311 310 299 290 236 11 114 133 145 153 185 252 281 282 270 249 253 261 251 252 260 182 129 319 40 34 9 244 153 149 141 143 151 160
337 334 330 328 327 326 323 323 319 315 314 312 312 252 224 203 252 147 140 138 148 194 207 224 261 255 260 256 291 275 259 271 287 153 203 116 217 207 64 133 136 139 140 150 159
335 332 330 328 326 325 324 321 314 313 312 310 257 166 237 251 117 143 158 156 169 180 218 239 242 237 268 274 288 279 287 282 322 307 258 163 219 147 177 138 139 143 144 155 163
333 332 330 327 326 325 324 317 310 309 310 312 180 221 255 247 146 164 157 186 188 195 223 236 238 284 299 314 273 306 326 325 321 297 290 262 263 288 166 142 145 151 154 167 169
334 332 328 327 326 325 321 315 308 305 297 326 190 254 254 205 152 165 180 211 223 215 231 290 293 341 340 315 331 326 352 19 280 265 260 139 245 264 235 149 161 165 164 172 175
333 331 328 326 325 325 323 311 303 290 229 145 207 227 271 266 163 186 180 208 217 256 322 301 18 353 324 306 332 306 245 243 267 258 248 139 206 246 291 152 172 172 173 175 176
333 329 326 323 323 326 323 303 295 297 190 201 260 305 263 220 205 163 193 226 145 207 226 178 313 224 309 61 239 253 258 268 246 273 262 186 196 230 225 138 172 216 175 177 180
332 328 327 324 320 327 341 346 350 22 250 230 193 246 215 220 162 159 201 228 159 180 203 212 144 216 224 217 230 248 264 269 299 327 26 0 329 258 246 294 278 229 199 181 185
330 327 326 322 318 319 275 264 52 226 298 263 256 257 271 135 162 193 183 165 166 214 221 303 221 236 232 237 231 263 339 320 315 319 350 310 294 272 296 256 255 215 207 199 190
328 326 327 323 318 303 226 276 264 350 286 283 217 235 197 144 203 200 159 218 187 225 234 207 240 230 240 294 352 7 312 300 271 305 335 355 332 307 275 241 253 292 152 62 106
327 326 329 330 326 337 281 0 358 63 320 260 187 210 189 157 263 215 170 195 237 209 226 219 251 217 205 260 298 282 245 245 252 339 281 74 278 283 250 236 234 253 63 72 58
324 324 325 318 300 293 317 322 350 50 336 161 163 186 142 173 173 228 168 206 248 264 219 252 225 256 270 197 203 232 280 5 2 7 26 316 26 275 307 195 227 89 89 84 84
322 320 327 290 210 252 296 304 10 14 246 167 144 181 160 204 263 147 156 179 243 270 290 268 283 270 208 253 221 279 8 352 347 34 341 248 175 284 272 104 94 81 86 89 87
322 315 306 272 234 340 318 326 348 228 307 158 170 167 188 207 240 169 172 177 213 219 271 285 266 220 162 314 272 134 55 347 338 13 211 264 17 219 96 101 111 97 73 75 83
321 311 244 207 236 262 292 335 252 280 284 286 171 165 185 202 227 179 174 205 220 235 281 251 270 205 163 179 203 182 156 167 236 202 232 296 47 25 76 62 66 67 71 69 69
319 291 251 236 219 246 21 237 228 228 2 337 342 166 186 213 193 195 186 204 214 202 193 2 331 124 140 175 162 298 157 222 148 296 46 144 74 56 75 74 71 70 63 57 61
318 290 258 222 182 148 186 258 292 315 304 356 340 278 236 259 228 177 187 215 193 98 99 35 357 107 146 58 335 212 239 21 357 116 261 314 149 162 117 110 91 72 58 49 55
258 301 237 132 103 163 224 244 288 304 42 349 336 338 324 325 273 184 220 31 33 110 80 67 83 298 25 155 321 329 279 344 124 129 173 345 317 344 113 108 100 82 68 59 53
314 290 182 137 143 219 224 241 239 300 111 0 320 298 287 332 319 338 91 71 359 35 55 54 114 352 282 306 308 308 345 120 110 303 5 135 283 112 102 106 100 95 92 82 71
310 271 279 150 241 246 288 290 291 246 10 330 299 328 283 355 340 75 70 30 25 53 45 326 48 36 335 338 11 0 6 39 111 90 220 112 267 86 93 86 92 90 65 57 51
289 301 274 140 220 282 294 292 318 133 9 315 339 339 358 346 304 305 124 73 69 98 124 60 21 132 196 222 332 322 319 330 130 122 225 209 156 100 58 63 56 55 58 58 49
242 262 353 322 338 333 337 337 329 322 216 111 334 267 279 276 306 311 74 130 112 157 87 89 75 10 305 305 316 297 305 309 316 232 168 256 64 94 88 76 56 47 38 49 48
303 352 341 298 295 306 305 316 304 301 196 189 188 306 313 62 58 38 8 30 68 235 119 34 45 26 322 312 302 287 274 278 275 279 277 238 111 119 83 67 45 44 55 46 25
1 331 298 288 310 312 266 263 279 289 66 22 44 11 41 20 357 350 341 348 342 51 90 124 114 61 272 344 347 312 249 258 245 43 46 95 138 86 67 65 48 71 60 43 17